[[{"header":{"parameterUnit":"m.s-1","parameterCategory":1,"la1":30.2992,"la2":30.254,"lo1":-89.0895,"lo2":-89.0443,"dy":0.0025,"dx":0.0025,"nx":19,"ny":19,"refTime":"2026-05-12T09:00:00:Z","depth":0,"parameterNumber":2,"parameterNumberName":"U-component_of_WINDS"},"data":[0,0,0,-3.2231,-3.2233,-3.2305,-3.2305,-3.242,-3.2421,0,0,0,0,0,0,0,0,0,0,0,-3.2226,-3.2227,-3.2231,-3.2233,-3.2305,-3.2305,-3.242,-3.2421,0,0,0,0,0,0,0,0,0,0,0,-3.2225,-3.2227,-3.2229,-3.2234,-3.2305,-3.2305,-3.242,-3.2357,0,0,0,0,0,0,0,0,0,0,-3.2284,-3.2294,-3.2227,-3.2229,-3.2234,-3.2304,-3.2305,-3.2354,-3.2361,-3.2399,0,-3.2437,0,-3.2431,-3.2431,-3.2431,0,0,0,-3.2221,-3.2288,-3.2293,-3.2229,-3.2235,-3.2304,-3.2269,-3.2357,-3.2366,-3.2409,-3.2439,-3.2442,-3.2433,-3.2432,-3.2432,-3.2693,-3.2695,0,0,-3.2218,-3.2247,-3.2288,-3.23,-3.2291,-3.2267,-3.2271,-3.2362,-3.2396,-3.2439,-3.2444,-3.2435,-3.2433,-3.2434,-3.2691,-3.2693,0,0,0,-3.2214,-3.2245,-3.2247,-3.2295,-3.2307,-3.2269,-3.2274,-3.2392,-3.2391,-3.2445,-3.2437,-3.2433,-3.2435,-3.2689,-3.2692,-3.281,0,0,0,-3.2211,-3.2243,-3.2246,-3.2265,-3.2305,-3.2351,-3.2303,-3.2384,-3.2394,-3.2436,-3.2434,-3.2437,-3.2687,-3.2691,-3.2802,-3.286,0,0,0,-3.2216,-3.2243,-3.2259,-3.2266,-3.2298,-3.2348,-3.2351,-3.2386,-3.2389,-3.2431,-3.2437,-3.2686,-3.269,-3.2795,-3.2849,-3.2938,0,0,0,-3.2229,-3.2361,-3.2261,-3.2406,-3.2298,-3.2421,-3.235,-3.244,-3.2491,-3.2434,-3.2687,-3.2692,-3.2793,-3.2842,-3.2931,-3.3019,-3.3059,0,0,-3.2412,-3.2384,-3.2467,-3.238,-3.2528,-3.2407,-3.2573,-3.259,-3.2567,-3.2652,-3.2658,-3.2805,-3.2848,-3.2937,-3.3267,-3.3298,0,0,0,-3.2535,-3.2595,-3.2628,-3.2678,-3.2696,-3.2715,-3.2705,-3.2711,-3.2782,-3.2617,-3.2859,-3.2884,-3.2935,-3.2976,-3.3003,-3.3044,-3.2711,-3.2711,-3.2711,-3.2837,-3.2801,-3.2935,-3.2908,-3.2958,-3.2946,-3.2982,-3.2989,-3.2937,-3.2995,-3.302,-3.3225,-3.3274,-3.3293,-3.3338,-3.3063,-3.3063,-3.3064,-3.3064,-3.3103,-3.3182,-3.3112,-3.3217,-3.3178,-3.3265,-3.3259,-3.3219,-3.3294,-3.3202,-3.3245,-3.3149,-3.3329,-3.3366,-3.3072,-3.3071,-3.307,-3.3069,-3.3068,-3.3297,-3.3329,-3.3336,-3.3405,-3.3463,-3.3429,-3.3506,-3.3467,-3.343,-3.3473,-3.3496,-3.3494,-3.3487,-3.3486,-3.3487,-3.3488,-3.3488,-3.3489,-3.3489,-3.3497,-3.35,-3.357,-3.3601,-3.3628,-3.3659,-3.3649,-3.3675,-3.3693,-3.3659,-3.3658,-3.3602,-3.3353,-3.3293,-3.35,-3.3498,-3.3497,-3.3496,-3.3495,-3.3781,-3.3711,-3.3819,-3.3847,-3.388,-3.394,-3.3889,-3.3945,-3.396,-3.3999,-3.3933,-3.3756,-3.3724,-3.3703,-3.3652,-3.394,-3.394,-3.394,-3.394,-3.3945,-3.3926,-3.4028,-3.4075,-3.4117,-3.4083,-3.4206,-3.42,-3.4181,-3.4189,-3.4141,-3.407,-3.405,-3.403,-3.4002,-3.3954,-3.4312,-3.4313,-3.4313,-3.4118,-3.4101,-3.4214,-3.4197,-3.422,-3.4241,-3.4356,-3.4413,-3.4377,-3.4327,-3.4194,-3.4178,-3.4063,-3.4027,-3.3975,-3.3932,-3.3843,0,0]},{"header":{"parameterUnit":"m.s-1","parameterCategory":1,"la1":30.2992,"la2":30.254,"lo1":-89.0895,"lo2":-89.0443,"dy":0.0025,"dx":0.0025,"nx":19,"ny":19,"refTime":"2026-05-12T09:00:00:Z","depth":0,"parameterNumber":3,"parameterNumberName":"V-component_of_WINDS"},"data":[0,0,0,-1.4752,-1.4756,-1.4956,-1.4957,-1.5192,-1.5194,0,0,0,0,0,0,0,0,0,0,0,-1.4677,-1.4678,-1.4752,-1.4756,-1.4956,-1.4957,-1.5191,-1.5194,0,0,0,0,0,0,0,0,0,0,0,-1.4677,-1.4678,-1.4679,-1.4757,-1.4956,-1.4957,-1.5191,-1.5048,0,0,0,0,0,0,0,0,0,0,-1.4858,-1.4773,-1.4678,-1.4679,-1.4758,-1.4956,-1.4957,-1.5042,-1.5057,-1.5091,0,-1.5115,0,-1.5157,-1.5208,-1.5208,0,0,0,-1.4769,-1.476,-1.4827,-1.4679,-1.476,-1.4955,-1.487,-1.5051,-1.5068,-1.5111,-1.5118,-1.5128,-1.5161,-1.5209,-1.521,-1.5358,-1.5358,0,0,-1.4758,-1.4705,-1.4815,-1.4838,-1.4803,-1.4863,-1.4876,-1.5061,-1.5067,-1.5119,-1.5134,-1.5165,-1.521,-1.5212,-1.5358,-1.5358,0,0,0,-1.4718,-1.4697,-1.4761,-1.4828,-1.4865,-1.4868,-1.4883,-1.5058,-1.5083,-1.5136,-1.5168,-1.5212,-1.5214,-1.5358,-1.5358,-1.5311,0,0,0,-1.4712,-1.4674,-1.4755,-1.4725,-1.4861,-1.4964,-1.4875,-1.5071,-1.5093,-1.5167,-1.5212,-1.5216,-1.5358,-1.5358,-1.5312,-1.5298,0,0,0,-1.467,-1.4669,-1.4692,-1.4722,-1.4806,-1.4962,-1.4998,-1.5077,-1.5112,-1.5209,-1.5217,-1.5358,-1.5358,-1.5313,-1.53,-1.5321,0,0,0,-1.461,-1.4649,-1.4691,-1.4747,-1.4804,-1.493,-1.4997,-1.5095,-1.5172,-1.5213,-1.5358,-1.5358,-1.5314,-1.5301,-1.5322,-1.5329,-1.5327,0,0,-1.463,-1.465,-1.4687,-1.473,-1.4835,-1.4904,-1.5005,-1.5126,-1.5185,-1.5298,-1.5302,-1.5312,-1.53,-1.5322,-1.5336,-1.5334,0,0,0,-1.4676,-1.4701,-1.4741,-1.4811,-1.4903,-1.4982,-1.5093,-1.5139,-1.5237,-1.5231,-1.5328,-1.5322,-1.5337,-1.5343,-1.5341,-1.5358,-1.5359,-1.5359,-1.5359,-1.4628,-1.4699,-1.4766,-1.4861,-1.4928,-1.5043,-1.5105,-1.5186,-1.524,-1.5261,-1.5295,-1.5294,-1.5299,-1.5299,-1.5314,-1.5305,-1.5305,-1.5305,-1.5305,-1.4664,-1.4712,-1.4781,-1.487,-1.4946,-1.5023,-1.5136,-1.5171,-1.5255,-1.5275,-1.5292,-1.5306,-1.5294,-1.5312,-1.5302,-1.5302,-1.5303,-1.5303,-1.5303,-1.464,-1.4676,-1.4729,-1.4837,-1.4914,-1.501,-1.5087,-1.5155,-1.5219,-1.5235,-1.5279,-1.528,-1.5289,-1.5251,-1.5251,-1.5251,-1.5251,-1.5251,-1.5251,-1.4595,-1.4656,-1.4711,-1.4812,-1.4866,-1.4946,-1.5062,-1.5118,-1.5198,-1.5241,-1.5242,-1.5293,-1.5279,-1.5274,-1.5252,-1.5252,-1.5251,-1.5251,-1.5251,-1.4603,-1.4612,-1.4696,-1.475,-1.4875,-1.4947,-1.5032,-1.514,-1.5197,-1.5233,-1.5281,-1.526,-1.5285,-1.5287,-1.5283,-1.5265,-1.5265,-1.5265,-1.5265,-1.4583,-1.4602,-1.4704,-1.4785,-1.4873,-1.4958,-1.5055,-1.5146,-1.5243,-1.5282,-1.5295,-1.5296,-1.5295,-1.5322,-1.5323,-1.532,-1.5312,-1.5312,-1.5312,-1.4592,-1.4623,-1.469,-1.4781,-1.4885,-1.4972,-1.5065,-1.5158,-1.527,-1.5315,-1.5315,-1.5313,-1.5316,-1.5313,-1.5356,-1.5356,-1.5353,0,0]}]]